Weather History for KMAO - February, 2014

Change the Weather History Date:

Saturday, February 22, 2014

  Actual Average (KFLO) Record (KFLO)
Temperature  
Mean Temperature 54 °F 50 °F  
Max Temperature 66 °F 61 °F 80 °F (1990)
Min Temperature 41 °F 39 °F 21 °F (1963)
Degree Days  
Heating Degree Days 12 15  
Month to date heating degree days 378  
Since 1 July heating degree days 1980  
Cooling Degree Days 0 0  
Month to date cooling degree days 0  
Year to date cooling degree days 2  
Growing Degree Days 4 (Base 50)    
Moisture  
Dew Point 34 °F    
Average Humidity 57    
Maximum Humidity 100    
Minimum Humidity 18    
Precipitation  
Precipitation 0.00 in 0.10 in 2.86 in (1962)
Month to date precipitation 2.27  
Year to date precipitation 5.50  
Sea Level Pressure  
Sea Level Pressure 30.12 in    
Wind  
Wind Speed 4 mph (NE)    
Max Wind Speed 13 mph    
Max Gust Speed 18 mph    
Visibility 10 miles    
Events      
T = Trace of Precipitation, MM = Missing Value Source: NWS Daily Summary

Daily Weather History Graph

Daily Weather History Graph

Search for Another Location

Airport or City:

Trip Planner

Search our weather history database for the weather conditions in past years. The results will help you decide how hot, cold, wet, or windy it might be!

Date:

Astronomy

Feb. 22, 2014 Rise Set
Actual Time 6:54 AM EST 6:07 PM EST
Civil Twilight 6:29 AM EST 6:32 PM EST
Nautical Twilight 6:00 AM EST 7:02 PM EST
Astronomical Twilight 5:31 AM EST 7:31 PM EST
Moon 12:41 AM EST (2/22) 11:23 AM EST (2/22)
Length of Visible Light 12h 03m
Length of Day
11h 12m
Waning Gibbous, 50% of the Moon is Illuminated
Feb 22
Waning Gibbous
Feb 22
Last Quarter
Mar 1
New
Mar 8
First Quarter
Mar 16
Full

Hourly Weather History & Observations

Time (EST) Temp. Windchill Dew Point Humidity Pressure Visibility Wind Dir Wind Speed Gust Speed Precip Events Conditions
12:15 AM 48.2 °F - 44.6 °F 87% 30.04 in 10.0 mi Calm Calm - N/A   Clear
12:35 AM 50.0 °F - 44.6 °F 82% 30.04 in 10.0 mi South 3.5 mph - N/A   Clear
12:55 AM 48.2 °F - 44.6 °F 87% 30.05 in 10.0 mi SSE 4.6 mph - N/A   Clear
1:15 AM 46.4 °F - 44.6 °F 93% 30.05 in 10.0 mi Calm Calm - N/A   Clear
1:35 AM 44.6 °F - 42.8 °F 93% 30.06 in 10.0 mi Calm Calm - N/A   Clear
1:55 AM 44.6 °F - 42.8 °F 93% 30.06 in 10.0 mi Calm Calm - N/A   Clear
2:15 AM 44.6 °F - 42.8 °F 93% 30.06 in 10.0 mi Calm Calm - N/A   Clear
2:35 AM 42.8 °F - 42.8 °F 100% 30.06 in 10.0 mi Calm Calm - N/A   Clear
2:55 AM 42.8 °F - 42.8 °F 100% 30.06 in 1.8 mi Calm Calm - N/A   Mist
3:15 AM 42.8 °F - 41.0 °F 93% 30.06 in 10.0 mi Calm Calm - N/A   Clear
3:35 AM 41.0 °F - 39.2 °F 93% 30.07 in 7.0 mi Calm Calm - N/A   Clear
3:55 AM 41.0 °F - 41.0 °F 100% 30.07 in 10.0 mi Calm Calm - N/A   Clear
4:15 AM 41.0 °F - 41.0 °F 100% 30.07 in 10.0 mi Calm Calm - N/A   Clear
4:35 AM 41.0 °F 38.0 °F 41.0 °F 100% 30.08 in 10.0 mi North 4.6 mph - N/A   Clear
4:55 AM 41.0 °F 38.0 °F 39.2 °F 93% 30.09 in 10.0 mi North 4.6 mph - N/A   Clear
5:15 AM 42.8 °F 40.1 °F 41.0 °F 93% 30.09 in 10.0 mi North 4.6 mph - N/A   Clear
5:35 AM 42.8 °F 40.1 °F 39.2 °F 87% 30.10 in 10.0 mi North 4.6 mph - N/A   Clear
5:55 AM 42.8 °F 41.1 °F 39.2 °F 87% 30.11 in 10.0 mi North 3.5 mph - N/A   Clear
6:15 AM 41.0 °F 38.0 °F 39.2 °F 93% 30.11 in 10.0 mi NNE 4.6 mph - N/A   Clear
6:35 AM 42.8 °F 38.6 °F 35.6 °F 76% 30.11 in 10.0 mi NNE 6.9 mph - N/A   Clear
6:55 AM 44.6 °F 40.2 °F 35.6 °F 71% 30.13 in 10.0 mi North 8.1 mph - N/A   Clear
7:15 AM 46.4 °F 42.9 °F 35.6 °F 66% 30.14 in 10.0 mi NNE 6.9 mph - N/A   Clear
7:35 AM 46.4 °F 42.4 °F 35.6 °F 66% 30.15 in 10.0 mi NNE 8.1 mph - N/A   Clear
7:55 AM 48.2 °F - 35.6 °F 62% 30.16 in 10.0 mi NNE 6.9 mph - N/A   Clear
8:15 AM 50.0 °F - 35.6 °F 58% 30.17 in 10.0 mi NNE 8.1 mph - N/A   Clear
8:35 AM 50.0 °F - 35.6 °F 58% 30.18 in 10.0 mi NNE 8.1 mph - N/A   Clear
8:55 AM 51.8 °F - 33.8 °F 50% 30.18 in 10.0 mi NNE 12.7 mph - N/A   Clear
9:15 AM 53.6 °F - 32.0 °F 44% 30.19 in 10.0 mi NNE 8.1 mph - N/A   Clear
9:35 AM 53.6 °F - 32.0 °F 44% 30.19 in 10.0 mi NE 11.5 mph - N/A   Clear
9:55 AM 55.4 °F - 32.0 °F 41% 30.19 in 10.0 mi NNE 11.5 mph - N/A   Clear
10:15 AM 57.2 °F - 32.0 °F 38% 30.19 in 10.0 mi ENE 10.4 mph 18.4 mph N/A   Clear
10:35 AM 59.0 °F - 30.2 °F 34% 30.20 in 10.0 mi NE 8.1 mph - N/A   Clear
10:55 AM 59.0 °F - 30.2 °F 34% 30.19 in 10.0 mi NNE 11.5 mph - N/A   Clear
11:15 AM 60.8 °F - 32.0 °F 34% 30.19 in 10.0 mi NE 10.4 mph - N/A   Clear
11:35 AM 60.8 °F - 30.2 °F 31% 30.19 in 10.0 mi ENE 9.2 mph - N/A   Clear
11:55 AM 62.6 °F - 30.2 °F 30% 30.18 in 10.0 mi NNE 8.1 mph - N/A   Clear
12:15 PM 62.6 °F - 30.2 °F 30% 30.17 in 10.0 mi NE 9.2 mph - N/A   Clear
12:35 PM 62.6 °F - 28.4 °F 27% 30.16 in 10.0 mi NE 8.1 mph - N/A   Clear
12:55 PM 64.4 °F - 28.4 °F 26% 30.15 in 10.0 mi NE 9.2 mph - N/A   Clear
1:15 PM 64.4 °F - 26.6 °F 24% 30.14 in 10.0 mi NE 3.5 mph - N/A   Clear
1:35 PM 64.4 °F - 23.0 °F 21% 30.13 in 10.0 mi ENE 8.1 mph - N/A   Clear
1:55 PM 64.4 °F - 21.2 °F 19% 30.13 in 10.0 mi ENE 6.9 mph - N/A   Clear
2:15 PM 66.2 °F - 23.0 °F 19% 30.13 in 10.0 mi ENE 6.9 mph - N/A   Clear
2:35 PM 64.4 °F - 26.6 °F 24% 30.12 in 10.0 mi North 5.8 mph - N/A   Clear
2:55 PM 66.2 °F - 21.2 °F 18% 30.12 in 10.0 mi North 8.1 mph - N/A   Clear
3:15 PM 66.2 °F - 21.2 °F 18% 30.11 in 10.0 mi North 8.1 mph - N/A   Clear
3:35 PM 64.4 °F - 23.0 °F 21% 30.11 in 10.0 mi NNE 6.9 mph - N/A   Clear
3:55 PM 64.4 °F - 19.4 °F 18% 30.11 in 10.0 mi North 4.6 mph - N/A   Clear
4:15 PM 64.4 °F - 21.2 °F 19% 30.10 in 10.0 mi NNE 5.8 mph - N/A   Clear
4:35 PM 64.4 °F - 23.0 °F 21% 30.10 in 10.0 mi NNE 5.8 mph - N/A   Clear
4:55 PM 62.6 °F - 26.6 °F 26% 30.11 in 10.0 mi NE 5.8 mph - N/A   Clear
5:15 PM 62.6 °F - 28.4 °F 27% 30.10 in 10.0 mi NE 3.5 mph - N/A   Clear
5:35 PM 60.8 °F - 32.0 °F 34% 30.10 in 10.0 mi NE 3.5 mph - N/A   Clear
5:55 PM 59.0 °F - 32.0 °F 36% 30.11 in 10.0 mi Calm Calm - N/A   Clear
6:15 PM 55.4 °F - 32.0 °F 41% 30.11 in 10.0 mi Calm Calm - N/A   Clear
6:35 PM 55.4 °F - 32.0 °F 41% 30.11 in 10.0 mi Calm Calm - N/A   Clear
6:55 PM 53.6 °F - 32.0 °F 44% 30.12 in 10.0 mi Calm Calm - N/A   Clear
7:15 PM 51.8 °F - 33.8 °F 50% 30.13 in 10.0 mi Calm Calm - N/A   Clear
7:35 PM 50.0 °F - 37.4 °F 62% 30.13 in 10.0 mi Calm Calm - N/A   Clear
7:55 PM 53.6 °F - 32.0 °F 44% 30.13 in 10.0 mi SE 4.6 mph - N/A   Clear
8:15 PM 53.6 °F - 33.8 °F 47% 30.14 in 10.0 mi SE 4.6 mph - N/A   Clear
8:35 PM 53.6 °F - 35.6 °F 51% 30.14 in 10.0 mi SE 3.5 mph - N/A   Clear
8:55 PM 51.8 °F - 35.6 °F 54% 30.15 in 10.0 mi SE 4.6 mph - N/A   Clear
9:15 PM 51.8 °F - 35.6 °F 54% 30.15 in 10.0 mi Calm Calm - N/A   Clear
9:35 PM 50.0 °F - 37.4 °F 62% 30.15 in 10.0 mi SE 3.5 mph - N/A   Clear
9:55 PM 48.2 °F - 37.4 °F 66% 30.15 in 10.0 mi Calm Calm - N/A   Clear
10:15 PM 46.4 °F - 37.4 °F 71% 30.15 in 10.0 mi Calm Calm - N/A   Clear
10:35 PM 44.6 °F - 37.4 °F 76% 30.14 in 10.0 mi Calm Calm - N/A   Clear
10:55 PM 44.6 °F - 37.4 °F 76% 30.13 in 10.0 mi Calm Calm - N/A   Clear
11:15 PM 44.6 °F - 37.4 °F 76% 30.13 in 10.0 mi Calm Calm - N/A   Clear
11:35 PM 44.6 °F - 37.4 °F 76% 30.13 in 10.0 mi Calm Calm - N/A   Clear
11:55 PM 44.6 °F - 37.4 °F 76% 30.13 in 10.0 mi Calm Calm - N/A   Clear